Volver al catálogo

BREEZE-KM R/B

ActivoPO
NORAD 39060·ROCKET BODY·🇷🇺 Russia

Lanzado Jan 15, 2013 desde Plesetsk Cosmodrome

Loading…

Próximos Pases (próximas 24 horas)

TLE

ActualizadoSource: Space-Track

Época: Sep 14, 2026, 03:31 UTC

1 39060U 13001D   26257.14719728  .00000026  00000-0  11974-3 0  9997
2 39060  82.4959 164.4070 0012689 233.0184 126.9735 12.42578405619621

Sigue BREEZE-KM R/B en tiempo real con AllMySat

Download on the App Store